| time (UTC) | temp F | wind direction | speed MPH | gust MPH | rain 1hr in | rain 24hr in | rain mn in | humidity % | barometer mb |
| 20260508215535 | 70 | 23 | 9.0 | 17.0 | 0.00 | 0.00 | 0.00 | 84 | 1013.9 |
| 20260508214455 | 70 | 23 | 10.0 | 19.0 | 0.00 | 0.00 | 0.00 | 84 | 1013.9 |
| 20260508213407 | 71 | 338 | 9.0 | 16.0 | 0.00 | 0.00 | 0.00 | 83 | 1014.2 |
| 20260508212320 | 71 | 23 | 8.0 | 14.0 | 0.00 | 0.00 | 0.00 | 83 | 1014.2 |
| 20260508211233 | 71 | 315 | 11.0 | 15.0 | 0.00 | 0.00 | 0.00 | 82 | 1014.3 |
| 20260508210146 | 72 | 23 | 11.0 | 16.0 | 0.00 | 0.00 | 0.00 | 79 | 1014.3 |
| 20260508205101 | 73 | 23 | 9.0 | 16.0 | 0.00 | 0.00 | 0.00 | 76 | 1014.8 |
| 20260508204510 | 76 | 315 | 11.0 | 20.0 | 0.00 | 0.00 | 0.00 | 72 | 1013.8 |
| 20260508202930 | 78 | 293 | 9.0 | 18.0 | 0.00 | 0.00 | 0.00 | 68 | 1013.8 |
| 20260508201846 | 83 | 135 | 5.0 | 11.0 | 0.00 | 0.00 | 0.00 | 70 | 1013.2 |
| 20260508200801 | 83 | 203 | 6.0 | 15.0 | 0.00 | 0.00 | 0.00 | 70 | 1013.2 |
| 20260508195718 | 84 | 158 | 10.0 | 13.0 | 0.00 | 0.00 | 0.00 | 70 | 1012.4 |
| 20260508194629 | 84 | 158 | 9.0 | 9.0 | 0.00 | 0.00 | 0.00 | 69 | 1012.4 |
| 20260508193548 | 84 | 158 | 7.0 | 15.0 | 0.00 | 0.00 | 0.00 | 70 | 1013.2 |
| 20260508192459 | 84 | 135 | 8.0 | 12.0 | 0.00 | 0.00 | 0.00 | 71 | 1013.2 |
| 20260508191413 | 83 | 113 | 7.0 | 11.0 | 0.00 | 0.00 | 0.00 | 72 | 1013.1 |
| 20260508190805 | 83 | 135 | 8.0 | 12.0 | 0.00 | 0.00 | 0.00 | 71 | 1013.1 |
| 20260508185242 | 83 | 68 | 7.0 | 12.0 | 0.00 | 0.00 | 0.00 | 72 | 1013.4 |
| 20260508184633 | 83 | 158 | 8.0 | 12.0 | 0.00 | 0.00 | 0.00 | 72 | 1013.4 |
| 20260508183115 | 82 | 158 | 8.0 | 10.0 | 0.00 | 0.00 | 0.00 | 73 | 1013.5 |
| 20260508182031 | 82 | 158 | 6.0 | 11.0 | 0.00 | 0.00 | 0.00 | 75 | 1013.6 |
| 20260508180939 | 81 | 90 | 5.0 | 9.0 | 0.00 | 0.00 | 0.00 | 76 | 1013.6 |
| 20260508180331 | 81 | 248 | 6.0 | 11.0 | 0.00 | 0.00 | 0.00 | 76 | 1013.8 |
| 20260508174809 | 81 | 90 | 6.0 | 7.0 | 0.00 | 0.00 | 0.00 | 77 | 1013.8 |
| 20260508173723 | 80 | 135 | 5.0 | 10.0 | 0.00 | 0.00 | 0.00 | 78 | 1013.7 |
| 20260508172640 | 80 | 68 | 7.0 | 13.0 | 0.00 | 0.00 | 0.00 | 79 | 1013.7 |
| 20260508171550 | 79 | 90 | 7.0 | 9.0 | 0.00 | 0.00 | 0.00 | 82 | 1013.8 |
| 20260508170505 | 79 | 68 | 7.0 | 9.0 | 0.00 | 0.00 | 0.00 | 83 | 1013.8 |
| 20260508165418 | 78 | 248 | 6.0 | 13.0 | 0.00 | 0.00 | 0.00 | 84 | 1014.3 |
| 20260508164331 | 77 | 113 | 5.0 | 9.0 | 0.00 | 0.00 | 0.00 | 85 | 1014.3 |
| 20260508163728 | 76 | 45 | 6.0 | 8.0 | 0.00 | 0.00 | 0.00 | 85 | 1014.4 |
| 20260508162205 | 75 | 45 | 6.0 | 8.0 | 0.00 | 0.00 | 0.00 | 85 | 1014.4 |
| 20260508161559 | 75 | 0 | 5.0 | 7.0 | 0.00 | 0.00 | 0.00 | 85 | 1015.2 |
| 20260508160512 | 74 | 90 | 7.0 | 12.0 | 0.00 | 0.00 | 0.00 | 85 | 1014.7 |
| 20260508154940 | 75 | 45 | 6.0 | 11.0 | 0.00 | 0.00 | 0.00 | 86 | 1014.7 |
| 20260508153856 | 74 | 68 | 6.0 | 13.0 | 0.00 | 0.00 | 0.00 | 86 | 1014.9 |
| 20260508152811 | 74 | 45 | 5.0 | 13.0 | 0.00 | 0.00 | 0.00 | 86 | 1014.9 |
| 20260508151727 | 73 | 23 | 4.0 | 12.0 | 0.00 | 0.00 | 0.00 | 87 | 1014.9 |
| 20260508150637 | 73 | 68 | 5.0 | 11.0 | 0.00 | 0.00 | 0.00 | 87 | 1014.9 |
| 20260508145551 | 73 | 45 | 6.0 | 11.0 | 0.00 | 0.00 | 0.00 | 87 | 1014.8 |
| 20260508144504 | 72 | 68 | 6.0 | 10.0 | 0.00 | 0.00 | 0.00 | 87 | 1014.8 |
| 20260508143420 | 72 | 23 | 5.0 | 11.0 | 0.00 | 0.00 | 0.00 | 87 | 1014.7 |
| 20260508142333 | 71 | 68 | 6.0 | 11.0 | 0.00 | 0.00 | 0.00 | 87 | 1014.7 |
| 20260508141250 | 71 | 68 | 4.0 | 7.0 | 0.00 | 0.00 | 0.00 | 87 | 1014.7 |
| 20260508140203 | 71 | 45 | 5.0 | 14.0 | 0.00 | 0.00 | 0.00 | 87 | 1014.7 |
| 20260508135120 | 71 | 68 | 4.0 | 11.0 | 0.00 | 0.00 | 0.00 | 87 | 1014.7 |
| 20260508134034 | 70 | 23 | 6.0 | 10.0 | 0.00 | 0.00 | 0.00 | 87 | 1014.9 |
| 20260508132945 | 70 | 68 | 5.0 | 9.0 | 0.00 | 0.00 | 0.00 | 87 | 1014.9 |
| 20260508131902 | 70 | 68 | 5.0 | 8.0 | 0.00 | 0.00 | 0.00 | 87 | 1015.2 |
| 20260508130821 | 70 | 68 | 5.0 | 9.0 | 0.00 | 0.00 | 0.00 | 87 | 1015.2 |
| 20260508125728 | 71 | 68 | 6.0 | 10.0 | 0.00 | 0.00 | 0.00 | 87 | 1015.3 |
| 20260508124643 | 71 | 45 | 6.0 | 12.0 | 0.00 | 0.00 | 0.00 | 87 | 1015.3 |
| 20260508124045 | 71 | 0 | 8.0 | 11.0 | 0.00 | 0.00 | 0.00 | 87 | 1015.2 |
| 20260508122512 | 71 | 338 | 8.0 | 12.0 | 0.00 | 0.00 | 0.00 | 87 | 1015.2 |
| 20260508121426 | 71 | 338 | 7.0 | 9.0 | 0.00 | 0.00 | 0.00 | 87 | 1015.2 |
| 20260508120344 | 71 | 0 | 7.0 | 10.0 | 0.00 | 0.00 | 0.00 | 87 | 1015.2 |
| 20260508115251 | 71 | 338 | 5.0 | 8.0 | 0.00 | 0.00 | 0.00 | 87 | 1013.4 |
| 20260508114205 | 71 | 45 | 6.0 | 9.0 | 0.00 | 0.00 | 0.00 | 87 | 1013.4 |
| 20260508113121 | 71 | 68 | 5.0 | 9.0 | 0.00 | 0.00 | 0.00 | 87 | 1014.2 |
| 20260508112037 | 71 | 45 | 3.0 | 4.0 | 0.00 | 0.00 | 0.00 | 87 | 1014.7 |
| 20260508110949 | 71 | 45 | 3.0 | 4.0 | 0.00 | 0.00 | 0.00 | 87 | 1014.7 |
| 20260508105906 | 71 | 23 | 5.0 | 9.0 | 0.00 | 0.00 | 0.00 | 87 | 1015.1 |
| 20260508104820 | 71 | 0 | 5.0 | 8.0 | 0.00 | 0.00 | 0.00 | 87 | 1015.1 |
| 20260508104206 | 71 | 315 | 4.0 | 5.0 | 0.00 | 0.00 | 0.00 | 87 | 1014.2 |
| 20260508102644 | 71 | 23 | 2.0 | 5.0 | 0.00 | 0.00 | 0.00 | 87 | 1014.2 |
| 20260508101557 | 71 | 23 | 4.0 | 7.0 | 0.00 | 0.00 | 0.00 | 87 | 1014.2 |
| 20260508100513 | 71 | 338 | 4.0 | 5.0 | 0.00 | 0.00 | 0.00 | 87 | 1014.2 |
| 20260508095910 | 71 | 338 | 4.0 | 6.0 | 0.00 | 0.00 | 0.00 | 87 | 1013.9 |
| 20260508094343 | 71 | 338 | 4.0 | 5.0 | 0.00 | 0.00 | 0.00 | 87 | 1013.9 |
| 20260508093256 | 71 | 293 | 4.0 | 6.0 | 0.00 | 0.00 | 0.00 | 87 | 1013.2 |
| 20260508092211 | 72 | 45 | 4.0 | 6.0 | 0.00 | 0.00 | 0.00 | 86 | 1013.2 |
| 20260508091125 | 72 | 338 | 4.0 | 6.0 | 0.00 | 0.00 | 0.00 | 86 | 1013.6 |
| 20260508090041 | 72 | 23 | 3.0 | 6.0 | 0.00 | 0.00 | 0.00 | 86 | 1013.9 |
| 20260508085929 | 73 | 0 | 3.0 | 6.0 | 0.00 | 0.00 | 0.00 | 87 | 1013.9 |
| 20260508083907 | 73 | 338 | 2.0 | 4.0 | 0.00 | 0.00 | 0.00 | 87 | 1013.8 |
| 20260508083254 | 73 | 23 | 2.0 | 4.0 | 0.00 | 0.00 | 0.00 | 86 | 1013.8 |
| 20260508081737 | 73 | 338 | 4.0 | 3.0 | 0.00 | 0.00 | 0.00 | 86 | 1014.1 |
| 20260508080652 | 73 | 338 | 3.0 | 6.0 | 0.00 | 0.00 | 0.00 | 86 | 1014.1 |
| 20260508075605 | 73 | 45 | 0.0 | 2.0 | 0.00 | 0.00 | 0.00 | 86 | 1014.0 |
| 20260508074525 | 73 | 23 | 0.0 | 0.0 | 0.00 | 0.00 | 0.00 | 86 | 1014.0 |
| 20260508050918 | 73 | 113 | 0.0 | 0.0 | 0.00 | 0.00 | 0.00 | 87 | 1015.5 |
| 20260508045828 | 73 | 225 | 0.0 | 0.0 | 0.00 | 0.00 | 0.00 | 86 | 1015.9 |
| 20260508044743 | 73 | 23 | 0.0 | 0.0 | 0.00 | 0.00 | 0.00 | 86 | 1015.9 |
| 20260508043659 | 73 | 45 | 0.0 | 0.0 | 0.00 | 0.00 | 0.00 | 86 | 1016.1 |
| 20260508042617 | 73 | 45 | 0.0 | 0.0 | 0.00 | 0.00 | 0.00 | 86 | 1016.1 |
| 20260508041525 | 73 | 315 | 0.0 | 0.0 | 0.00 | 0.00 | 0.00 | 86 | 1015.7 |
| 20260508040441 | 73 | 0 | 0.0 | 0.0 | 0.00 | 0.00 | 0.00 | 86 | 1015.7 |
| 20260508035356 | 73 | 135 | 0.0 | 0.0 | 0.00 | 0.00 | 0.00 | 86 | 1015.7 |
| 20260508034309 | 73 | 23 | 0.0 | 2.0 | 0.00 | 0.00 | 0.00 | 86 | 1015.7 |
| 20260508033659 | 73 | 135 | 0.0 | 2.0 | 0.00 | 0.00 | 0.00 | 86 | 1015.9 |
| 20260508032144 | 73 | 68 | 0.0 | 0.0 | 0.00 | 0.00 | 0.00 | 86 | 1015.6 |
| 20260508031051 | 73 | 68 | 1.0 | 3.0 | 0.00 | 0.00 | 0.00 | 86 | 1015.6 |
| 20260508030008 | 73 | 338 | 1.0 | 3.0 | 0.00 | 0.00 | 0.00 | 86 | 1015.4 |
| 20260508024921 | 73 | 23 | 0.0 | 2.0 | 0.00 | 0.00 | 0.00 | 86 | 1015.4 |
| 20260508023834 | 73 | 180 | 1.0 | 2.0 | 0.00 | 0.00 | 0.00 | 86 | 1015.6 |
| 20260508022747 | 73 | 293 | 1.0 | 3.0 | 0.00 | 0.00 | 0.00 | 86 | 1015.6 |
| 20260508021706 | 73 | 315 | 1.0 | 3.0 | 0.00 | 0.00 | 0.00 | 86 | 1015.1 |
| 20260508020619 | 73 | 113 | 0.0 | 0.0 | 0.00 | 0.00 | 0.00 | 86 | 1015.1 |
| 20260508015530 | 73 | 23 | 1.0 | 2.0 | 0.00 | 0.00 | 0.00 | 86 | 1014.8 |
| 20260508014444 | 73 | 338 | 1.0 | 3.0 | 0.00 | 0.00 | 0.00 | 86 | 1014.8 |
| 20260508013400 | 73 | 45 | 0.0 | 0.0 | 0.00 | 0.00 | 0.00 | 86 | 1015.2 |
| 20260508012319 | 73 | 90 | 0.0 | 0.0 | 0.00 | 0.00 | 0.00 | 86 | 1015.2 |
| 20260508011233 | 73 | 68 | 0.0 | 3.0 | 0.00 | 0.00 | 0.00 | 85 | 1014.5 |
| 20260508010144 | 73 | 0 | 1.0 | 3.0 | 0.00 | 0.00 | 0.00 | 85 | 1014.5 |
| 20260508005059 | 73 | 293 | 0.0 | 2.0 | 0.00 | 0.00 | 0.00 | 85 | 1014.4 |
| 20260508004456 | 73 | 23 | 1.0 | 2.0 | 0.00 | 0.00 | 0.00 | 85 | 1014.3 |
| 20260508002929 | 73 | 338 | 1.0 | 2.0 | 0.00 | 0.00 | 0.00 | 85 | 1014.3 |
| 20260508001842 | 73 | 45 | 2.0 | 3.0 | 0.00 | 0.00 | 0.00 | 85 | 1014.2 |
| 20260508000759 | 73 | 338 | 1.0 | 2.0 | 0.00 | 0.00 | 0.00 | 85 | 1014.2 |
| 20260507235711 | 73 | 338 | 2.0 | 3.0 | 0.00 | 0.00 | 0.00 | 85 | 1014.4 |
| 20260507234626 | 73 | 23 | 2.0 | 3.0 | 0.00 | 0.00 | 0.00 | 84 | 1014.4 |
| 20260507233902 | 73 | 23 | 2.0 | 6.0 | 0.00 | 0.00 | 0.00 | 84 | 1014.5 |
| 20260507233539 | 73 | 338 | 2.0 | 3.0 | 0.00 | 0.00 | 0.00 | 84 | 1014.5 |
| 20260507231407 | 73 | 23 | 4.0 | 7.0 | 0.00 | 0.00 | 0.00 | 84 | 1014.3 |
| 20260507230328 | 73 | 23 | 4.0 | 6.0 | 0.00 | 0.00 | 0.00 | 84 | 1014.3 |
| 20260507225239 | 73 | 0 | 5.0 | 9.0 | 0.00 | 0.00 | 0.00 | 84 | 1014.4 |
| 20260507224153 | 73 | 338 | 4.0 | 7.0 | 0.00 | 0.00 | 0.00 | 82 | 1014.4 |
| 20260507223107 | 73 | 0 | 4.0 | 6.0 | 0.00 | 0.00 | 0.00 | 82 | 1014.2 |
| 20260507222029 | 74 | 23 | 4.0 | 7.0 | 0.00 | 0.00 | 0.00 | 82 | 1014.2 |
| 20260507220936 | 74 | 315 | 5.0 | 8.0 | 0.00 | 0.00 | 0.00 | 82 | 1014.2 |